Regional Weather Roundup
Issued by NWS Sioux Falls, SD

Home | Current Version | Previous Version | Text Only | Print | Product List | Glossary On
Versions: 1 2 3 4 5 6 7 8 9 10 11 12 13 14 15 16 17 18 19 20 21 22 23 24 25 26 27 28 29 30 31 32 33 34 35 36 37 38 39 40 41 42 43 44 45 46 47 48 49 50
826
ASUS43 KFSD 220902
RWRFSD

WEATHER ROUNDUP FOR SE SOUTH DAKOTA/SW MINNESOTA/NW IOWA
NATIONAL WEATHER SERVICE SIOUX FALLS SD
400 AM CDT FRI MAY 22 2015

NOTE: "FAIR" INDICATES FEW OR NO CLOUDS BELOW 12,000 FEET WITH NO
SIGNIFICANT WEATHER AND OR OBSTRUCTIONS TO VISIBILITY.


SDZ038>040-050-052>070-221000-
SOUTHEAST SOUTH DAKOTA

CITY           SKY/WX    TMP DP  RH WIND       PRES   REMARKS
BROOKINGS      CLEAR     46  37  71 CALM      30.19S
CHAMBERLAIN    CLEAR     46  37  71 NE3       30.16F
HURON          CLEAR     45  41  86 CALM      30.16S
MADISON        FAIR      48  36  61 SW3       30.18R
MITCHELL       CLEAR     49  40  71 CALM      30.17S
SIOUX FALLS    CLEAR     45  41  86 CALM      30.17S
WINNER         FAIR      48  34  58 S6        30.16S
YANKTON        CLEAR     45  37  76 CALM      30.17F
$$

MNZ071-072-080-081-089-090-097-098-221000-
SOUTHWEST MINNESOTA

CITY           SKY/WX    TMP DP  RH WIND       PRES   REMARKS
FAIRMONT       CLEAR     50  30  46 NW6       30.15R
JACKSON        CLEAR     46  32  57 W3        30.17R
LUVERNE        CLEAR     46  37  71 CALM      30.19R
MARSHALL       CLEAR     46  32  57 W7        30.16R
MONTEVIDEO     CLEAR     46  36  66 CALM      30.17R
REDWOOD FALLS  CLEAR     49  37  63 NW3       30.15R
TRACY          CLEAR     51  34  53 W3        30.17R
WORTHINGTON    CLEAR     45  30  57 SW5       30.19R
$$

IAZ001>003-012>014-020>022-031-032-NEZ013-014-SDZ071-221000-
NORTHWEST IOWA

CITY           SKY/WX    TMP DP  RH WIND       PRES   REMARKS
DENISON        CLEAR     50  41  71 SW3       30.17F
ESTHERVILLE    CLEAR     44  33  65 W8        30.16R
SIOUX CITY     CLEAR     48  37  65 CALM      30.19S
SPENCER        CLEAR     43  37  79 NW6       30.18R
$$

ABBREVIATIONS USED IN REMARKS
   TC - TEMPERATURE IN CELSIUS
  WCI - WIND CHILL INDEX
   HX - HEAT INDEX
  VSB - VISIBILITY




USA.gov is the U.S. government's official web portal to all federal, state and local government web resources and services.